Inquirer Daily News

Weather

Get conditions and forecasts for any City, State, ZIP code or Country:  
Trenton, NJ
on Thursday, November 15, 2012

Thursday
Previous Day Next Day
Daily Summary
 ActualAverageRecord
Temperature
Mean Temperature °F 46°F  
Max Temperature 47°F 55°F 78°F (1993)
Min Temperature 33°F 37°F 19°F (1996)
Degree Days
Heating Degree Days 25 19  
Month to date heating degree days 321 254  
Since 1 July heating degree days 628 651  
Cooling Degree Days 0 0  
Month to date cooling degree days 0 0  
Year to date cooling degree days 1234 965  
Moisture
Dew Point 26°F   
Average Humidity 62    
Maximum Humidity 75    
Minimum Humidity 49    
Precipitation
Precipitation 0.00 in 0.10 in 1.70 in (1983)
Month to date precipitation 0.58 1.55  
Year to date precipitation 32.63 40.98  
Wind
Wind Speed 5 mph   
Max Wind Speed 12 mph   
Max Gust Speed 15 mph   
Visibility 10 miles   
Events     

Key: T is trace of precipitation, MM is missing value
Source: NWS Daily Summary
Time(EST)TemperatureDew PointHumidity Pressure Visibility Wind DirectionWind SpeedGust SpeedPrecipitationEvents Conditions
12:53 AM 34.0°F 23.0°F 64% 30.42 in 10.0 miles NNE 8.1 mph - N/A   Clear
1:53 AM 36.0°F 23.0°F 59% 30.41 in 10.0 miles NNE 6.9 mph - N/A   Clear
2:53 AM 35.1°F 23.0°F 61% 30.41 in 10.0 miles NNE 5.8 mph - N/A   Clear
3:53 AM 35.1°F 23.0°F 61% 30.40 in 10.0 miles NE 6.9 mph - N/A   Clear
4:53 AM 34.0°F 23.0°F 64% 30.40 in 10.0 miles ENE 8.1 mph - N/A   Clear
5:53 AM 34.0°F 23.0°F 64% 30.40 in 10.0 miles NE 6.9 mph - N/A   Clear
6:53 AM 34.0°F 23.0°F 64% 30.41 in 10.0 miles NNE 5.8 mph - N/A   Clear
7:53 AM 36.0°F 24.1°F 62% 30.41 in 10.0 miles NE 9.2 mph - N/A   Clear
8:53 AM 37.0°F 26.1°F 65% 30.41 in 10.0 miles NE 8.1 mph - N/A   Clear
9:53 AM 39.0°F 27.0°F 62% 30.42 in 10.0 miles ENE 8.1 mph - N/A   Clear
10:53 AM 43.0°F 28.0°F 56% 30.40 in 10.0 miles ENE 4.6 mph - N/A   Clear
11:53 AM 45.0°F 28.9°F 53% 30.36 in 10.0 miles Calm Calm - N/A   Clear
12:53 PM 45.0°F 28.9°F 53% 30.35 in 10.0 miles NNE 5.8 mph - N/A   Clear
1:53 PM 45.0°F 28.9°F 53% 30.35 in 10.0 miles Calm Calm - N/A   Clear
2:53 PM 46.0°F 28.9°F 51% 30.33 in 10.0 miles Calm Calm - N/A   Clear
3:53 PM 44.1°F 28.0°F 53% 30.32 in 10.0 miles East 4.6 mph - N/A   Clear
4:53 PM 43.0°F 27.0°F 53% 30.32 in 10.0 miles Calm Calm - N/A   Clear
5:53 PM 39.9°F 28.0°F 63% 30.32 in 10.0 miles Calm Calm - N/A   Clear
6:53 PM 37.9°F 27.0°F 65% 30.32 in 10.0 miles Calm Calm - N/A   Clear
7:53 PM 36.0°F 27.0°F 70% 30.32 in 10.0 miles NNE 3.5 mph - N/A   Clear
8:53 PM 36.0°F 27.0°F 70% 30.31 in 10.0 miles NE 3.5 mph - N/A   Clear
9:53 PM 35.1°F 28.0°F 76% 30.30 in 10.0 miles NE 3.5 mph - N/A   Clear
10:53 PM 36.0°F 28.9°F 76% 30.29 in 10.0 miles North 5.8 mph - N/A   Clear
11:53 PM 35.1°F 28.9°F 78% 30.29 in 10.0 miles North 4.6 mph - N/A   Clear
Astronomy
Sunrise:06:45 AM (EST) Moon Rise:08:38 AM (EST)11/15
Sunset:04:41 PM (EST) Moon Set:06:30 PM (EST)11/15
Moon Phase
Nov. 15 Nov. 20 Nov. 28 Dec. 06 Dec. 13

Copyright © 2014 The Weather Underground, Inc.